Regional Weather Roundup
Issued by NWS Newport/Morehead, NC

Current Version | Previous Version | Graphics & Text | Print | Product List | Glossary Off
Versions: 1 2 3 4 5 6 7 8 9 10 11 12 13 14 15 16 17 18 19 20 21 22 23 24 25 26 27 28 29 30 31 32 33 34 35 36 37 38 39 40 41 42 43 44 45 46 47 48 49 50

000
ASUS42 KMHX 102222
RWRMHX
WEATHER ROUNDUP FOR EASTERN NORTH CAROLINA
NATIONAL WEATHER SERVICE NEWPORT/MOREHEAD CITY NC
600 PM EDT THU JUL 10 2014

NOTE: "FAIR" INDICATES FEW OR NO CLOUDS BELOW 12,000 FEET
WITH NO SIGNIFICANT WEATHER AND/OR OBSTRUCTIONS TO VISIBILITY

NCZ015>017-031-032-045>047-102-103-102300-
NORTH COAST

CITY           SKY/WX    TMP DP  RH WIND       PRES   REMARKS
EDENTON        RAIN      73  71  96 E5        30.08F
ELIZABETH CITY CLOUDY    73  69  87 NE5       30.08R
KITTY HAWK     HVY RAIN  71  70  96 NW5       30.09R VSB 3/4
MANTEO         NOT AVBL

$$

NCZ045>047-081-094-103-104-102300-
CENTRAL COAST

CITY           SKY/WX    TMP DP  RH WIND       PRES   REMARKS
FRISCO         PTSUNNY   83  76  79 SW15G22   30.07R
SWANQUARTER      N/A     79 N/A N/A W9G21     30.03R

$$

NCZ095-097-098-100-101-102300-
SOUTHERN COAST

CITY           SKY/WX    TMP DP  RH WIND       PRES   REMARKS
BEAUFORT       PTSUNNY   83  77  82 SW15      30.06S
CEDAR ISLAND     N/A     84 N/A N/A S7G18     30.12R
JACKSONVILLE   CLOUDY    82  76  81 S8        30.04S
NEWPORT        NOT AVBL
PINEY ISLAND   MOCLDY    85  77  77 S20G25    30.06R
WILMINGTON     CLOUDY    86  75  69 S12       30.03F


$$

NCZ011>013-027>030-043-044-078>080-089-090>093-098-102300-
COASTAL PLAIN

CITY           SKY/WX    TMP DP  RH WIND       PRES   REMARKS
AHOSKIE        CLOUDY    71  69  94 CALM      30.06F
CLINTON        CLOUDY    74  72  93 CALM      30.06R
ELIZABETHTOWN  PTSUNNY   75  73  92 CALM      30.05R
GOLDSBORO      LGT RAIN  73  73 100 NE7       30.06R
GREENVILLE     CLOUDY    70  70 100 CALM      30.10S
HAVELOCK       PTSUNNY   83  74  74 SW10G21   30.07R
KENANSVILLE    CLOUDY    73  69  88 CALM      30.05F
KINSTON        CLOUDY    73  70  88 N3        30.07S
NEW BERN       CLOUDY    79  68  69 N15G24    30.09R
RICHLANDS      CLOUDY    81  70  69 N7        30.06R
ROANOKE RAPIDS NOT AVBL
ROCKY MOUNT    LGT RAIN  72  71  97 VRB3      30.07S FOG
WASHINGTON     CLOUDY   N/A N/A N/A W8        30.10R
WHITEVILLE     PTSUNNY   78  73  86 CALM      30.03S

$$

AMZ130-135-150-152-154-156-158-170-250-252-270-ANZ085-086-088-633-658-670-102300-
MARINE OBSERVATIONS

STATION/POSITION TIME  TEMP    WIND        PRES    WAVE   SWELL
                       AIR SEA DIR/SP/G            HT/PER HT/PER
                 (UTC) (F)     (DEG/KT/KT) (MB)    (FT/S) (FT/S)
CHESAPEAKE LIGHT NOT AVBL
BUOY 44014       2200   73 74  340/ 16/ 19 1018.1    3/ 6   2/ 8
DUCK             2200   70 65   10/ 12/ 12 1017.9
2E DUCK          2200                        N/A     2/ 4
OREGON INLET     2200   82 84  190/ 23/ 27 1017.3
BUOY 44095       2200      80                N/A     4/ 6
HATTERAS CG      2200   82 83  210/  8/ 13 1018.8
DIAMOND BUOY     2200          VRB 17/ 21  1017.9    4/ 5   2/ 9
17S OCRACOKE INL NOT AVBL
CAPE LOOKOUT     2200   82     190/ 13/ 15 1018.0
BEAUFORT LAB     2200   82 82  210/ 10/ 15 1017.7
30 SE NEW RIVER  2200   81 82  210/ 17/ 21 1017.9    4/ 6   2/ 8
5 SE WRIGHTSVILL 2200   78 81  210/ 16/ 17 1018.0
FRYING PAN BUOY  NOT AVBL
BUOY 41001       NOT AVBL
BUOY 41002       2058   81 81  210/ 12/ 16 1021.2    3/ 8   2/ 8
BUOY 41004       2200   83 82  190/ 16/ 19 1016.7    4/ 4   2/ 8

$$



USA.gov is the U.S. government's official web portal to all federal, state and local government web resources and services.